This demonstration page uses our WeatherBlox Daily Observations layout. Learn more.

Hourly Observations for March 19, 2019

Temp ( °F °C ) Dew Point ( °F °C ) Humidity (%) Winds ( mph kmh ) Pressure ( in mb ) Visibility ( mi km ) Precip ( " mm )
12:15 am 00:15 Clear 36 2 21 -6 56 56 N 3 6 30.42 1030 10 16.09344 0 0
12:35 am 00:35 Clear 37 3 21 -6 52 52 Calm 30.42 1030 10 16.09344 0 0
12:55 am 00:55 Clear 36 2 23 -5 60 60 Calm 30.42 1030 10 16.09344 0 0
1:15 am 01:15 Clear 36 2 21 -6 56 56 Calm 30.42 1030 10 16.09344 0 0
1:35 am 01:35 Clear 34 1 23 -5 65 65 Calm 30.45 1031 10 16.09344 0 0
1:55 am 01:55 Clear 32 0 25 -4 75 75 Calm 30.45 1031 10 16.09344 0 0
2:15 am 02:15 Clear 34 1 23 -5 65 65 Calm 30.42 1030 10 16.09344 0 0
2:35 am 02:35 Clear 32 0 23 -5 69 69 Calm 30.42 1030 10 16.09344 0 0
2:55 am 02:55 Clear 30 -1 25 -4 80 80 NW 5 7 30.42 1030 10 16.09344 0 0
3:15 am 03:15 Clear 30 -1 25 -4 80 80 NNW 5 7 30.42 1030 10 16.09344 0 0
3:35 am 03:35 Clear 32 0 23 -5 69 69 NW 5 7 30.42 1030 10 16.09344 0 0
3:55 am 03:55 Clear 32 0 23 -5 69 69 N 3 6 30.42 1030 10 16.09344 0 0
4:15 am 04:15 Clear 32 0 23 -5 69 69 Calm 30.42 1030 10 16.09344 0 0
4:35 am 04:35 Clear 30 -1 23 -5 75 75 NW 3 6 30.42 1030 10 16.09344 0 0
4:55 am 04:55 Clear 30 -1 25 -4 80 80 WNW 3 6 30.42 1030 10 16.09344 0 0
5:15 am 05:15 Clear 32 0 23 -5 69 69 Calm 30.45 1031 10 16.09344 0 0
5:35 am 05:35 Clear 32 0 23 -5 69 69 Calm 30.45 1031 10 16.09344 0 0
5:55 am 05:55 Clear 30 -1 23 -5 75 75 Calm 30.45 1031 10 16.09344 0 0
6:15 am 06:15 Clear 28 -2 23 -5 80 80 Calm 30.45 1031 10 16.09344 0 0
6:35 am 06:35 Clear 28 -2 25 -4 86 86 Calm 30.45 1031 10 16.09344 0 0
6:55 am 06:55 Clear 28 -2 25 -4 86 86 SW 3 6 30.48 1032 10 16.09344 0 0
7:15 am 07:15 Clear 28 -2 27 -3 93 93 WSW 3 6 30.48 1032 10 16.09344 0 0
7:35 am 07:35 Sunny 28 -2 25 -4 86 86 Calm 30.48 1032 10 16.09344 0 0
7:55 am 07:55 Sunny 28 -2 25 -4 86 86 Calm 30.48 1032 10 16.09344 0 0
8:15 am 08:15 Sunny 30 -1 27 -3 86 86 Calm 30.48 1032 10 16.09344 0 0
8:35 am 08:35 Sunny 32 0 27 -3 80 80 Calm 30.5 1033 10 16.09344 0 0
8:55 am 08:55 Sunny 34 1 28 -2 81 81 Calm 30.5 1033 10 16.09344 0 0
9:15 am 09:15 Sunny 37 3 27 -3 65 65 W 3 6 30.5 1033 10 16.09344 0 0
9:35 am 09:35 Sunny 41 5 27 -3 57 57 Calm 30.5 1033 10 16.09344 0 0
9:55 am 09:55 Sunny 41 5 23 -5 49 49 Calm 30.53 1034 10 16.09344 0 0
10:15 am 10:15 Sunny 43 6 23 -5 46 46 Calm 30.53 1034 10 16.09344 0 0
10:35 am 10:35 Sunny 43 6 21 -6 42 42 Calm 30.53 1034 10 16.09344 0 0
10:55 am 10:55 Sunny 45 7 23 -5 42 42 NNW 3 6 30.53 1034 10 16.09344 0 0
11:15 am 11:15 Sunny 45 7 21 -6 39 39 NW 5 7 30.53 1034 10 16.09344 0 0
11:35 am 11:35 Sunny 45 7 21 -6 39 39 Calm 30.53 1034 10 16.09344 0 0
11:55 am 11:55 Sunny 45 7 21 -6 39 39 NNE 3 6 30.53 1034 10 16.09344 0 0
12:15 pm 12:15 Mostly Cloudy 45 7 21 -6 39 39 Calm 30.53 1034 10 16.09344 0 0
12:35 pm 12:35 Mostly Cloudy 45 7 23 -5 42 42 NW 8 13 30.5 1033 10 16.09344 0 0
12:55 pm 12:55 Partly Cloudy 46 8 23 -5 40 40 W 7 11 30.5 1033 10 16.09344 0 0
1:15 pm 13:15 Partly Cloudy 46 8 21 -6 37 37 Calm 30.5 1033 10 16.09344 0 0
1:35 pm 13:35 Partly Cloudy 45 7 21 -6 39 39 Calm 30.5 1033 10 16.09344 0 0
1:55 pm 13:55 Partly Cloudy 48 9 23 -5 37 37 NW 6 9 30.48 1032 10 16.09344 0 0
2:15 pm 14:15 Partly Cloudy 48 9 25 -4 40 40 N 3 6 30.48 1032 10 16.09344 0 0
2:35 pm 14:35 Sunny 50 10 25 -4 37 37 NNW 8 13 30.48 1032 10 16.09344 0 0
2:55 pm 14:55 Sunny 50 10 23 -5 35 35 WSW 5 7 30.48 1032 10 16.09344 0 0
3:15 pm 15:15 Sunny 50 10 25 -4 37 37 Calm 30.45 1031 10 16.09344 0 0
3:30 pm 15:30 Sunny 52 11 23 -5 32 32 SW 8 13 30.45 1031 10 16.09344 0 0
3:55 pm 15:55 Partly Cloudy 50 10 23 -5 35 35 W 6 9 30.45 1031 10 16.09344 0 0
4:15 pm 16:15 Sunny 50 10 25 -4 37 37 NNE 5 7 30.45 1031 10 16.09344 0 0
4:35 pm 16:35 Sunny 52 11 27 -3 38 38 WNW 10 17 30.42 1030 10 16.09344 0 0
4:55 pm 16:55 Sunny 50 10 23 -5 35 35 N 6 9 30.42 1030 10 16.09344 0 0
5:15 pm 17:15 Sunny 50 10 25 -4 37 37 NW 7 11 30.42 1030 10 16.09344 0 0
5:35 pm 17:35 Sunny 52 11 25 -4 35 35 NW 7 11 30.42 1030 10 16.09344 0 0
5:55 pm 17:55 Sunny 50 10 25 -4 37 37 NW 5 7 30.42 1030 10 16.09344 0 0
6:15 pm 18:15 Sunny 50 10 23 -5 35 35 NNW 6 9 30.42 1030 10 16.09344 0 0
6:35 pm 18:35 Sunny 50 10 23 -5 35 35 Calm 30.42 1030 10 16.09344 0 0
6:55 pm 18:55 Sunny 48 9 23 -5 37 37 Calm 30.42 1030 10 16.09344 0 0
7:15 pm 19:15 Sunny 48 9 23 -5 37 37 Calm 30.42 1030 10 16.09344 0 0
7:35 pm 19:35 Clear 46 8 23 -5 40 40 Calm 30.42 1030 10 16.09344 0 0
7:55 pm 19:55 Clear 46 8 23 -5 40 40 E 3 6 30.42 1030 10 16.09344 0 0
8:15 pm 20:15 Clear 45 7 23 -5 42 42 ESE 3 6 30.42 1030 10 16.09344 0 0
8:35 pm 20:35 Clear 45 7 23 -5 42 42 ESE 5 7 30.42 1030 10 16.09344 0 0
8:55 pm 20:55 Clear 45 7 23 -5 42 42 E 3 6 30.42 1030 10 16.09344 0 0
9:15 pm 21:15 Clear 41 5 28 -2 61 61 Calm 30.42 1030 10 16.09344 0 0
9:35 pm 21:35 Clear 37 3 28 -2 70 70 Calm 30.45 1031 10 16.09344 0 0
9:55 pm 21:55 Clear 37 3 28 -2 70 70 Calm 30.45 1031 10 16.09344 0 0
10:15 pm 22:15 Clear 37 3 28 -2 70 70 Calm 30.45 1031 10 16.09344 0 0
10:35 pm 22:35 Clear 36 2 30 -1 81 81 Calm 30.45 1031 10 16.09344 0 0
10:55 pm 22:55 Clear 34 1 28 -2 81 81 Calm 30.45 1031 10 16.09344 0 0
11:15 pm 23:15 Clear 37 3 27 -3 65 65 SSE 5 7 30.45 1031 10 16.09344 0 0
11:35 pm 23:35 Clear 32 0 27 -3 80 80 S 5 7 30.45 1031 10 16.09344 0 0
11:55 pm 23:55 Clear 34 1 28 -2 81 81 Calm 30.45 1031 10 16.09344 0 0

Powered by AerisWeather